Time,TemperatureF,DewpointF,PressureIn,WindDirection,WindDirectionDegrees,WindSpeedMPH,WindSpeedGustMPH,Humidity,HourlyPrecipIn,Conditions,Clouds,dailyrainin,SoftwareType,DateUTC
2013-03-25 00:05:00,36.5,35.0,29.60,NE,39,0.0,3.0,93,0.00,,,0.00,weatherlink.com 1.10,2013-03-25 04:05:00,
2013-03-25 00:20:00,36.5,35.0,29.59,SE,135,0.0,4.0,93,0.00,,,0.00,weatherlink.com 1.10,2013-03-25 04:20:00,
2013-03-25 00:35:00,36.4,35.0,29.59,NNW,344,0.0,3.0,93,0.00,,,0.00,weatherlink.com 1.10,2013-03-25 04:35:00,
2013-03-25 00:50:00,36.2,34.0,29.60,North,6,0.0,2.0,93,0.00,,,0.00,weatherlink.com 1.10,2013-03-25 04:50:00,
2013-03-25 01:05:00,36.3,35.0,29.61,North,8,1.0,1.0,93,0.00,,,0.00,weatherlink.com 1.10,2013-03-25 05:05:00,
2013-03-25 01:20:00,36.1,35.0,29.61,NNE,19,0.0,1.0,94,0.00,,,0.00,weatherlink.com 1.10,2013-03-25 05:20:00,
2013-03-25 01:35:00,36.1,35.0,29.59,SE,135,0.0,1.0,94,0.00,,,0.00,weatherlink.com 1.10,2013-03-25 05:35:00,
2013-03-25 01:50:00,36.2,35.0,29.59,SSE,150,0.0,0.0,94,0.00,,,0.00,weatherlink.com 1.10,2013-03-25 05:50:00,
2013-03-25 02:05:00,36.2,35.0,29.57,South,181,0.0,0.0,95,0.00,,,0.00,weatherlink.com 1.10,2013-03-25 06:05:00,
2013-03-25 02:21:00,36.1,35.0,29.57,SE,143,0.0,2.0,95,0.00,,,0.00,weatherlink.com 1.10,2013-03-25 06:21:00,
2013-03-25 02:36:00,36.1,35.0,29.58,SE,142,0.0,1.0,95,0.00,,,0.00,weatherlink.com 1.10,2013-03-25 06:36:00,
2013-03-25 02:51:00,36.1,35.0,29.58,ESE,117,0.0,1.0,95,0.00,,,0.00,weatherlink.com 1.10,2013-03-25 06:51:00,
2013-03-25 03:06:00,36.2,35.0,29.56,ESE,117,0.0,0.0,95,0.00,,,0.00,weatherlink.com 1.10,2013-03-25 07:06:00,
2013-03-25 03:21:00,36.1,35.0,29.56,ENE,73,0.0,0.0,95,0.00,,,0.00,weatherlink.com 1.10,2013-03-25 07:21:00,
2013-03-25 03:36:00,36.0,35.0,29.56,ENE,74,0.0,0.0,95,0.00,,,0.00,weatherlink.com 1.10,2013-03-25 07:36:00,
2013-03-25 03:51:00,36.0,35.0,29.57,NW,309,0.0,2.0,95,0.00,,,0.00,weatherlink.com 1.10,2013-03-25 07:51:00,
2013-03-25 04:06:00,36.0,35.0,29.57,WSW,256,1.0,1.0,95,0.00,,,0.00,weatherlink.com 1.10,2013-03-25 08:06:00,
2013-03-25 04:21:00,35.9,35.0,29.57,WNW,288,0.0,1.0,95,0.00,,,0.00,weatherlink.com 1.10,2013-03-25 08:21:00,
2013-03-25 04:36:00,35.8,35.0,29.57,WNW,296,0.0,2.0,95,0.00,,,0.00,weatherlink.com 1.10,2013-03-25 08:36:00,
2013-03-25 04:51:00,35.8,35.0,29.57,WNW,294,2.0,2.0,96,0.00,,,0.00,weatherlink.com 1.10,2013-03-25 08:51:00,
2013-03-25 06:51:00,35.2,34.0,29.58,WNW,302,0.0,2.0,96,0.00,,,0.00,weatherlink.com 1.10,2013-03-25 10:51:00,
2013-03-25 07:21:00,35.1,34.0,29.58,NW,312,0.0,0.0,96,0.00,,,0.00,weatherlink.com 1.10,2013-03-25 11:21:00,
2013-03-25 07:36:00,35.1,34.0,29.58,WNW,294,1.0,2.0,96,0.00,,,0.00,weatherlink.com 1.10,2013-03-25 11:36:00,
2013-03-25 07:51:00,35.2,34.0,29.57,NW,326,0.0,1.0,96,0.00,,,0.00,weatherlink.com 1.10,2013-03-25 11:51:00,
2013-03-25 08:06:00,35.3,34.0,29.58,NW,326,0.0,0.0,96,0.00,,,0.00,weatherlink.com 1.10,2013-03-25 12:06:00,
2013-03-25 08:36:00,35.6,35.0,29.59,NNW,330,2.0,3.0,96,0.00,,,0.00,weatherlink.com 1.10,2013-03-25 12:36:00,
2013-03-25 09:06:00,36.1,35.0,29.60,NW,321,1.0,2.0,96,0.00,,,0.00,weatherlink.com 1.10,2013-03-25 13:06:00,
2013-03-25 09:21:00,36.4,35.0,29.60,NNW,328,1.0,5.0,96,0.00,,,0.00,weatherlink.com 1.10,2013-03-25 13:21:00,
2013-03-25 09:36:00,36.7,36.0,29.60,NW,316,2.0,3.0,96,0.00,,,0.00,weatherlink.com 1.10,2013-03-25 13:36:00,
2013-03-25 09:51:00,36.9,36.0,29.60,NNW,330,3.0,6.0,96,0.00,,,0.00,weatherlink.com 1.10,2013-03-25 13:51:00,
2013-03-25 10:06:00,37.1,36.0,29.60,NNW,329,2.0,3.0,96,0.00,,,0.00,weatherlink.com 1.10,2013-03-25 14:06:00,
2013-03-25 10:36:00,37.9,36.0,29.60,NW,308,3.0,4.0,94,0.00,,,0.00,weatherlink.com 1.10,2013-03-25 14:36:00,
2013-03-25 10:51:00,38.8,37.0,29.60,WNW,294,2.0,6.0,93,0.00,,,0.00,weatherlink.com 1.10,2013-03-25 14:51:00,
2013-03-25 11:21:00,40.7,38.0,29.61,WNW,284,3.0,5.0,88,0.00,,,0.00,weatherlink.com 1.10,2013-03-25 15:21:00,
2013-03-25 11:38:00,41.1,37.0,29.61,WNW,301,5.0,7.0,84,0.00,,,0.00,weatherlink.com 1.10,2013-03-25 15:38:00,
2013-03-25 11:51:00,42.8,38.0,29.60,WSW,253,1.0,8.0,83,0.00,,,0.00,weatherlink.com 1.10,2013-03-25 15:51:00,
2013-03-25 12:06:00,43.9,37.0,29.60,NNW,343,2.0,7.0,76,0.00,,,0.00,weatherlink.com 1.10,2013-03-25 16:06:00,
2013-03-25 12:21:00,44.9,37.0,29.59,WSW,253,3.0,6.0,75,0.00,,,0.00,weatherlink.com 1.10,2013-03-25 16:21:00,
2013-03-25 12:36:00,46.5,37.0,29.59,WSW,249,3.0,8.0,70,0.00,,,0.00,weatherlink.com 1.10,2013-03-25 16:36:00,
2013-03-25 12:52:00,47.7,35.0,29.59,West,280,4.0,10.0,62,0.00,,,0.00,weatherlink.com 1.10,2013-03-25 16:52:00,
2013-03-25 13:07:00,47.1,33.0,29.59,WNW,283,1.0,9.0,59,0.00,,,0.00,weatherlink.com 1.10,2013-03-25 17:07:00,
2013-03-25 13:22:00,46.5,32.0,29.59,WNW,294,4.0,11.0,57,0.00,,,0.00,weatherlink.com 1.10,2013-03-25 17:22:00,
2013-03-25 13:37:00,46.7,29.0,29.58,NW,316,3.0,12.0,51,0.00,,,0.00,weatherlink.com 1.10,2013-03-25 17:37:00,
2013-03-25 13:52:00,46.8,29.0,29.59,WNW,301,3.0,8.0,51,0.00,,,0.00,weatherlink.com 1.10,2013-03-25 17:52:00,
2013-03-25 14:07:00,46.7,29.0,29.59,NNW,329,4.0,13.0,50,0.00,,,0.00,weatherlink.com 1.10,2013-03-25 18:07:00,
2013-03-25 14:22:00,45.9,27.0,29.60,NW,316,6.0,19.0,48,0.00,,,0.00,weatherlink.com 1.10,2013-03-25 18:22:00,
2013-03-25 14:37:00,47.1,30.0,29.60,NW,319,4.0,9.0,51,0.00,,,0.00,weatherlink.com 1.10,2013-03-25 18:37:00,
2013-03-25 14:52:00,47.8,28.0,29.59,NW,308,5.0,16.0,46,0.00,,,0.00,weatherlink.com 1.10,2013-03-25 18:52:00,
2013-03-25 15:07:00,47.1,28.0,29.60,East,90,3.0,18.0,47,0.00,,,0.00,weatherlink.com 1.10,2013-03-25 19:07:00,
2013-03-25 15:22:00,46.5,29.0,29.60,WNW,302,8.0,13.0,50,0.00,,,0.00,weatherlink.com 1.10,2013-03-25 19:22:00,
2013-03-25 15:37:00,47.6,27.0,29.60,WNW,284,5.0,12.0,45,0.00,,,0.00,weatherlink.com 1.10,2013-03-25 19:37:00,
2013-03-25 15:52:00,47.5,27.0,29.60,NW,304,5.0,14.0,45,0.00,,,0.00,weatherlink.com 1.10,2013-03-25 19:52:00,
2013-03-25 16:07:00,47.5,26.0,29.60,NNW,328,4.0,15.0,44,0.00,,,0.00,weatherlink.com 1.10,2013-03-25 20:07:00,
2013-03-25 16:22:00,46.7,26.0,29.61,WNW,284,4.0,10.0,45,0.00,,,0.00,weatherlink.com 1.10,2013-03-25 20:22:00,
2013-03-25 16:37:00,46.4,25.0,29.61,NW,316,5.0,10.0,44,0.00,,,0.00,weatherlink.com 1.10,2013-03-25 20:37:00,
2013-03-25 16:52:00,46.3,25.0,29.62,NNW,340,3.0,15.0,44,0.00,,,0.00,weatherlink.com 1.10,2013-03-25 20:52:00,
2013-03-25 17:07:00,46.6,25.0,29.63,NNW,336,2.0,11.0,43,0.00,,,0.00,weatherlink.com 1.10,2013-03-25 21:07:00,
2013-03-25 17:22:00,46.8,25.0,29.64,WNW,297,2.0,14.0,43,0.00,,,0.00,weatherlink.com 1.10,2013-03-25 21:22:00,
2013-03-25 17:37:00,46.3,25.0,29.64,NNW,328,5.0,11.0,43,0.00,,,0.00,weatherlink.com 1.10,2013-03-25 21:37:00,
2013-03-25 17:52:00,46.0,24.0,29.65,WNW,297,7.0,10.0,43,0.00,,,0.00,weatherlink.com 1.10,2013-03-25 21:52:00,
2013-03-25 18:07:00,46.4,24.0,29.65,NW,312,2.0,17.0,42,0.00,,,0.00,weatherlink.com 1.10,2013-03-25 22:07:00,
2013-03-25 18:22:00,45.9,25.0,29.66,West,274,1.0,11.0,44,0.00,,,0.00,weatherlink.com 1.10,2013-03-25 22:22:00,
2013-03-25 18:37:00,45.7,25.0,29.67,WSW,257,2.0,9.0,45,0.00,,,0.00,weatherlink.com 1.10,2013-03-25 22:37:00,
2013-03-25 18:52:00,45.3,24.0,29.68,NW,309,6.0,12.0,44,0.00,,,0.00,weatherlink.com 1.10,2013-03-25 22:52:00,
2013-03-25 19:07:00,45.0,25.0,29.69,WNW,298,2.0,9.0,46,0.00,,,0.00,weatherlink.com 1.10,2013-03-25 23:07:00,
2013-03-25 19:22:00,44.7,25.0,29.70,NW,312,2.0,7.0,47,0.00,,,0.00,weatherlink.com 1.10,2013-03-25 23:22:00,
2013-03-25 19:37:00,44.7,25.0,29.71,NW,309,3.0,7.0,47,0.00,,,0.00,weatherlink.com 1.10,2013-03-25 23:37:00,
2013-03-25 19:52:00,44.6,26.0,29.72,WNW,295,6.0,7.0,48,0.00,,,0.00,weatherlink.com 1.10,2013-03-25 23:52:00,
2013-03-25 20:07:00,44.5,26.0,29.73,NW,304,5.0,8.0,48,0.00,,,0.00,weatherlink.com 1.10,2013-03-26 00:07:00,
2013-03-25 20:22:00,44.1,25.0,29.73,NW,323,2.0,4.0,48,0.00,,,0.00,weatherlink.com 1.10,2013-03-26 00:22:00,
2013-03-25 20:37:00,43.5,26.0,29.74,WNW,294,0.0,5.0,50,0.00,,,0.00,weatherlink.com 1.10,2013-03-26 00:37:00,
2013-03-25 20:52:00,42.8,26.0,29.75,WNW,293,2.0,3.0,52,0.00,,,0.00,weatherlink.com 1.10,2013-03-26 00:52:00,
2013-03-25 21:07:00,42.4,26.0,29.76,WNW,291,1.0,4.0,53,0.00,,,0.00,weatherlink.com 1.10,2013-03-26 01:07:00,
2013-03-25 21:23:00,42.3,27.0,29.77,WNW,290,0.0,3.0,55,0.00,,,0.00,weatherlink.com 1.10,2013-03-26 01:23:00,
2013-03-25 21:38:00,42.5,27.0,29.77,WNW,299,0.0,4.0,54,0.00,,,0.00,weatherlink.com 1.10,2013-03-26 01:38:00,
2013-03-25 21:53:00,42.6,26.0,29.77,WNW,295,0.0,6.0,53,0.00,,,0.00,weatherlink.com 1.10,2013-03-26 01:53:00,
2013-03-25 22:08:00,42.3,26.0,29.78,ESE,121,1.0,5.0,53,0.00,,,0.00,weatherlink.com 1.10,2013-03-26 02:08:00,
2013-03-25 22:23:00,42.2,26.0,29.79,WNW,291,2.0,5.0,52,0.00,,,0.00,weatherlink.com 1.10,2013-03-26 02:23:00,
2013-03-25 22:38:00,41.7,26.0,29.79,NW,309,1.0,5.0,53,0.00,,,0.00,weatherlink.com 1.10,2013-03-26 02:38:00,
2013-03-25 22:53:00,41.1,25.0,29.80,WNW,291,1.0,4.0,54,0.00,,,0.00,weatherlink.com 1.10,2013-03-26 02:53:00,
2013-03-25 23:08:00,40.7,25.0,29.80,WNW,301,1.0,6.0,55,0.00,,,0.00,weatherlink.com 1.10,2013-03-26 03:08:00,
2013-03-25 23:23:00,40.7,25.0,29.80,WNW,297,6.0,11.0,54,0.00,,,0.00,weatherlink.com 1.10,2013-03-26 03:23:00,
2013-03-25 23:38:00,40.5,25.0,29.81,WNW,302,5.0,7.0,54,0.00,,,0.00,weatherlink.com 1.10,2013-03-26 03:38:00,
2013-03-25 23:53:00,40.1,25.0,29.81,NW,316,1.0,6.0,55,0.00,,,0.00,weatherlink.com 1.10,2013-03-26 03:53:00,